Regional Weather Roundup
Issued by NWS

Home | Current Version | Previous Version | Text Only | Print | Product List | Glossary On
Versions: 1 2 3 4 5 6 7 8 9 10 11 12 13 14 15 16 17 18 19 20 21 22 23 24 25 26 27 28 29 30 31 32 33 34 35 36 37 38 39 40 41 42 43 44 45 46 47 48 49 50
000
ASUS42 KKEY 181510
RWRKEY

FLORIDA REGIONAL WEATHER ROUNDUP FOR THE FLORIDA KEYS
NATIONAL WEATHER SERVICE KEY WEST FLORIDA
1000 AM EST MON DEC 18 2017

...SOUTH FLORIDA AND THE KEYS...

CITY           SKY/WX    TMP DP  RH WIND       PRES   REMARKS
FORT MYERS     CLOUDY    69  69 100 SE3       30.24R FOG
SW REGIONAL AP CLOUDY    70  70 100 CALM      30.25R FOG
NAPLES         SUNNY     70  70 100 E3        30.24S
MIAMI          PTSUNNY   79  70  74 E10       30.24S
WEST KENDALL   MOSUNNY   78  69  73 SE10      30.24R
HOMESTEAD      SUNNY     79  74  85 E9        30.23R
MARATHON       SUNNY     79  71  76 E9        30.22R
KEY WEST INTL  MOSUNNY   78  72  81 E12       30.22R

...INTERNATIONAL WEATHER...

CITY           SKY/WX    TMP DP  RH WIND       PRES   REMARKS
NASSAU BAHAMAS PTSUNNY   79  70  73 NE7       30.26R
CANCUN MEXICO  MOSUNNY   79  75  89 E8        30.15R
COZUMEL MEXICO MOSUNNY   82  75  78 SE9       30.12R

ADJACENT COASTAL WATERS...

STATION/POSITION TIME  SKY/WX   TEMP    WIND        PRES    WAVE
                                AIR SEA DIR/SP/G            HT/PER
                 (UTC)          (F)     (DEG/KT/KT) (MB)    (FT/S)
PULASKI SHOAL LI 1500            75     100/ 12/ 14 1023.4R
SAND KEY         1450            75                 1023.8R
LONG KEY         NOT AVBL
MOLASSES REEF    1500            77 77  110/ 11/ 12 1024.0R
FOWEY ROCKS      1500            77 76  110/ 11/ 12 1024.6R
Buoy 42097       1430               77                N/A     2/ 4

$$



USA.gov is the U.S. government's official web portal to all federal, state and local government web resources and services.